Total_Precipitation_Accumulation
1.60 1.73 1.67 1.63 1.65 1.70 1.75 1.78 1.78 1.62 1.32 0.93 0.77 0.74 0.78 0.82 1.05 0.99 0.87 0.84 0.74 0.67 0.59 0.50 0.45 0.46 0.59 0.75 0.93 1.12 1.25 1.37 1.42 1.39 1.32 1.27 1.33 1.41
1.39 1.53 1.65 1.69 1.73 1.74 1.78 1.78 1.72 1.65 1.50 1.11 0.86 0.73 0.81 0.77 0.90 0.78 0.89 1.04 0.81 0.65 0.57 0.51 0.45 0.44 0.45 0.51 0.56 0.61 0.63 0.68 0.79 0.95 1.02 1.02 1.05 1.11
1.23 1.25 1.43 1.57 1.69 1.74 1.74 1.73 1.76 1.68 1.48 1.28 1.01 0.85 0.92 0.91 0.91 0.82 0.87 0.93 0.82 0.75 0.65 0.56 0.49 0.47 0.44 0.45 0.45 0.42 0.44 0.45 0.51 0.64 0.76 0.78 0.78 0.81
1.07 1.16 1.26 1.29 1.39 1.53 1.64 1.63 1.71 1.72 1.61 1.50 1.24 1.02 0.99 0.98 1.07 1.10 1.07 1.02 0.99 1.04 0.98 0.80 0.65 0.58 0.52 0.46 0.43 0.40 0.37 0.39 0.39 0.45 0.56 0.69 0.80 0.78
0.94 1.01 1.06 1.15 1.25 1.29 1.37 1.47 1.54 1.58 1.64 1.57 1.47 1.33 1.17 1.09 1.10 1.07 1.17 1.32 1.27 1.24 1.28 1.10 0.88 0.75 0.66 0.59 0.53 0.46 0.41 0.41 0.39 0.39 0.44 0.52 0.62 0.71
0.85 0.92 0.98 1.03 1.10 1.17 1.20 1.32 1.45 1.54 1.55 1.51 1.46 1.39 1.32 1.28 1.25 1.20 1.26 1.40 1.48 1.38 1.35 1.27 1.18 1.05 0.90 0.78 0.66 0.59 0.55 0.51 0.50 0.48 0.46 0.49 0.54 0.59
0.79 0.82 0.85 0.82 0.86 0.93 0.92 1.09 1.25 1.43 1.49 1.53 1.45 1.34 1.28 1.28 1.26 1.28 1.33 1.49 1.54 1.58 1.57 1.44 1.32 1.15 1.01 0.91 0.78 0.70 0.67 0.61 0.57 0.56 0.55 0.54 0.57 0.64
0.70 0.73 0.80 0.82 0.78 0.74 0.73 0.81 0.94 1.06 1.23 1.36 1.40 1.31 1.24 1.22 1.31 1.42 1.44 1.51 1.60 1.55 1.46 1.54 1.46 1.35 1.17 0.98 0.95 0.91 0.82 0.73 0.65 0.62 0.59 0.58 0.57 0.63
0.54 0.66 0.78 0.84 0.87 0.89 0.77 0.76 0.77 0.81 0.91 1.08 1.21 1.22 1.20 1.22 1.27 1.37 1.44 1.47 1.39 1.46 1.41 1.49 1.47 1.34 1.19 1.12 1.15 1.02 0.93 0.85 0.80 0.73 0.67 0.65 0.66 0.69
0.47 0.57 0.72 0.84 0.87 0.89 0.84 0.90 0.88 0.79 0.76 0.84 1.02 1.10 1.10 1.23 1.34 1.45 1.57 1.55 1.50 1.50 1.42 1.43 1.37 1.23 1.13 1.12 1.20 1.06 0.96 0.89 0.84 0.83 0.80 0.77 0.78 0.81
0.44 0.52 0.67 0.76 0.86 0.87 0.84 0.95 0.95 0.78 0.71 0.81 0.85 0.92 1.00 1.13 1.30 1.44 1.53 1.53 1.52 1.51 1.36 1.23 1.18 1.22 1.22 1.15 1.11 1.09 0.98 0.89 0.82 0.78 0.77 0.76 0.78 0.88
0.44 0.49 0.69 0.74 0.77 0.74 0.76 0.96 1.06 0.93 0.70 0.68 0.75 0.88 0.96 1.09 1.32 1.45 1.67 1.66 1.46 1.44 1.34 1.21 1.19 1.28 1.40 1.30 1.12 1.01 0.94 0.94 0.92 0.87 0.83 0.83 0.92 0.91
0.32 0.37 0.40 0.52 0.55 0.59 0.70 0.82 0.92 0.83 0.75 0.83 0.92 0.95 1.02 1.08 1.18 1.30 1.52 1.68 1.59 1.39 1.29 1.30 1.28 1.27 1.25 1.20 1.14 1.03 0.92 0.89 0.88 0.88 0.91 0.94 1.00 0.97
0.22 0.27 0.31 0.40 0.45 0.50 0.58 0.63 0.67 0.72 0.78 0.91 0.94 0.86 0.91 0.97 0.98 1.08 1.25 1.38 1.27 1.21 1.13 1.09 1.11 1.06 1.01 0.94 0.95 1.00 1.00 0.93 0.90 0.89 0.88 1.02 1.08 1.08
0.16 0.22 0.26 0.34 0.34 0.40 0.48 0.49 0.58 0.80 0.92 0.87 0.84 0.81 0.79 0.83 0.83 0.94 1.13 1.28 1.24 1.06 0.97 0.91 0.91 0.92 0.90 0.85 0.81 0.80 0.86 0.89 0.84 0.84 0.88 0.88 0.88 0.96
0.17 0.20 0.24 0.31 0.34 0.37 0.44 0.51 0.63 0.79 0.93 0.79 0.67 0.68 0.69 0.78 0.85 0.83 0.93 1.03 1.18 1.16 1.04 0.96 0.92 0.92 0.91 0.82 0.79 0.76 0.70 0.73 0.77 0.83 0.87 0.86 0.84 0.82
0.21 0.29 0.39 0.50 0.50 0.51 0.57 0.61 0.64 0.65 0.70 0.65 0.64 0.68 0.72 0.74 0.80 0.82 0.84 0.85 0.89 0.94 0.98 0.96 0.93 0.94 0.97 0.92 0.85 0.75 0.72 0.68 0.72 0.83 0.92 0.94 0.88 0.87
0.29 0.34 0.46 0.60 0.65 0.67 0.68 0.69 0.70 0.66 0.67 0.62 0.64 0.65 0.66 0.66 0.70 0.77 0.85 0.92 0.86 0.78 0.75 0.74 0.78 0.86 0.94 0.97 0.87 0.76 0.75 0.76 0.76 0.78 0.82 0.84 0.81 0.81
0.30 0.35 0.53 0.59 0.57 0.59 0.66 0.69 0.63 0.53 0.54 0.54 0.51 0.51 0.52 0.52 0.55 0.61 0.70 0.77 0.78 0.74 0.71 0.70 0.72 0.76 0.80 0.77 0.73 0.64 0.67 0.73 0.80 0.79 0.75 0.72 0.67 0.66
0.33 0.46 0.60 0.63 0.58 0.52 0.50 0.47 0.42 0.38 0.40 0.41 0.42 0.43 0.46 0.48 0.49 0.51 0.54 0.57 0.63 0.66 0.72 0.74 0.75 0.76 0.77 0.75 0.69 0.61 0.58 0.64 0.70 0.75 0.73 0.73 0.74 0.77
0.28 0.39 0.48 0.55 0.50 0.38 0.32 0.31 0.30 0.31 0.33 0.36 0.39 0.43 0.45 0.47 0.49 0.51 0.52 0.55 0.57 0.60 0.63 0.65 0.70 0.82 0.86 0.87 0.80 0.65 0.59 0.65 0.71 0.70 0.70 0.72 0.73 0.71
0.18 0.22 0.26 0.28 0.27 0.25 0.26 0.27 0.28 0.31 0.33 0.36 0.39 0.43 0.47 0.52 0.53 0.51 0.53 0.53 0.54 0.55 0.56 0.58 0.66 0.78 0.85 0.88 0.80 0.67 0.59 0.60 0.70 0.77 0.76 0.74 0.69 0.63
0.19 0.22 0.24 0.25 0.27 0.27 0.28 0.28 0.30 0.31 0.34 0.36 0.39 0.44 0.47 0.49 0.53 0.54 0.53 0.54 0.55 0.54 0.56 0.58 0.62 0.72 0.80 0.82 0.78 0.71 0.64 0.61 0.61 0.62 0.61 0.65 0.62 0.58